• In France
  • List of Countries
  • For 7 days
  • Water Temperature
  • Satellite Maps
  • Weather Map
  • Weather Widgets
  • user-avatar
    Login

    Hourly Weather Yopal

    Today, 21 May, Monday

    Time Temperature Precipitation Wind Pressure Humidity
    00:00 +24°C° 0.2 mm 1 mps 731 mmHg 92%
    01:00 +24°C° 0 mm 1 mps 730 mmHg 93%
    02:00 +24°C° 0.4 mm 1 mps 730 mmHg 92%
    03:00 +24°C° 0.4 mm 1 mps 730 mmHg 91%
    04:00 +24°C° 0.4 mm 1 mps 730 mmHg 91%
    05:00 +25°C° 0.3 mm 1 mps 730 mmHg 89%
    06:00 +25°C° 0.3 mm 1 mps 731 mmHg 86%
    07:00 +24°C° 0.3 mm 0 mps 731 mmHg 84%
    08:00 +27°C° 0.2 mm 1 mps 731 mmHg 79%
    09:00 +29°C° 0.2 mm 1 mps 731 mmHg 73%
    10:00 +30°C° 0.2 mm 1 mps 731 mmHg 68%
    11:00 +31°C° 0.1 mm 2 mps 731 mmHg 65%
    12:00 +32°C° 0.1 mm 2 mps 730 mmHg 63%
    13:00 +34°C° 0.1 mm 2 mps 730 mmHg 60%
    14:00 +32°C° 0.4 mm 2 mps 729 mmHg 66%
    15:00 +31°C° 0.4 mm 2 mps 729 mmHg 72%
    16:00 +30°C° 0.4 mm 2 mps 728 mmHg 77%
    17:00 +29°C° 0.2 mm 1 mps 728 mmHg 83%
    18:00 +28°C° 0.2 mm 1 mps 729 mmHg 88%
    19:00 +26°C° 0.2 mm 1 mps 729 mmHg 93%
    20:00 +26°C° 0.1 mm 1 mps 729 mmHg 93%
    21:00 +26°C° 0.1 mm 1 mps 730 mmHg 93%
    22:00 +25°C° 0.1 mm 1 mps 730 mmHg 93%
    23:00 +25°C° 0.4 mm 1 mps 730 mmHg 92%

    Tomorrow, 22 May, Tuesday

    Time Temperature Precipitation Wind Pressure Humidity
    00:00 +25°C° 0.4 mm 1 mps 730 mmHg 91%
    01:00 +25°C° 0.4 mm 1 mps 730 mmHg 91%
    02:00 +25°C° 0.3 mm 1 mps 730 mmHg 90%
    03:00 +25°C° 0.3 mm 1 mps 730 mmHg 89%
    04:00 +24°C° 0.3 mm 1 mps 730 mmHg 89%
    05:00 +25°C° 0.2 mm 1 mps 730 mmHg 86%
    06:00 +26°C° 0.2 mm 1 mps 730 mmHg 83%
    07:00 +25°C° 0.2 mm 0 mps 731 mmHg 80%
    08:00 +28°C° 0.3 mm 1 mps 731 mmHg 73%
    09:00 +30°C° 0.3 mm 1 mps 731 mmHg 66%
    10:00 +32°C° 0.3 mm 1 mps 732 mmHg 59%
    11:00 +32°C° 0.2 mm 1 mps 731 mmHg 59%
    12:00 +34°C° 0.2 mm 2 mps 730 mmHg 59%
    13:00 +34°C° 0.2 mm 2 mps 730 mmHg 59%
    14:00 +32°C° 0.6 mm 2 mps 729 mmHg 65%
    15:00 +31°C° 0.6 mm 2 mps 729 mmHg 72%
    16:00 +30°C° 0.6 mm 2 mps 728 mmHg 78%
    17:00 +28°C° 0.3 mm 2 mps 729 mmHg 83%
    18:00 +27°C° 0.3 mm 1 mps 729 mmHg 89%
    19:00 +26°C° 0.3 mm 1 mps 729 mmHg 94%
    20:00 +26°C° 0.4 mm 1 mps 730 mmHg 93%
    21:00 +26°C° 0.4 mm 1 mps 731 mmHg 92%
    22:00 +26°C° 0.4 mm 1 mps 731 mmHg 92%
    23:00 +25°C° 0.3 mm 1 mps 731 mmHg 91%

    Day after tomorrow, 23 May, Wednesday

    Time Temperature Precipitation Wind Pressure Humidity
    00:00 +25°C° 0.3 mm 1 mps 731 mmHg 90%
    01:00 +25°C° 0.3 mm 1 mps 730 mmHg 89%
    02:00 +25°C° 0.1 mm 1 mps 730 mmHg 89%
    03:00 +25°C° 0.1 mm 1 mps 730 mmHg 88%
    04:00 +25°C° 0.1 mm 1 mps 730 mmHg 88%
    05:00 +25°C° 0.3 mm 1 mps 731 mmHg 87%
    06:00 +23°C° 0.3 mm 0 mps 731 mmHg 86%
    07:00 +23°C° 0.3 mm 0 mps 731 mmHg 84%
    08:00 +27°C° 0.3 mm 1 mps 732 mmHg 79%
    09:00 +28°C° 0.3 mm 1 mps 732 mmHg 74%
    10:00 +29°C° 0.3 mm 1 mps 733 mmHg 69%
    11:00 +30°C° 0.4 mm 1 mps 732 mmHg 69%
    12:00 +30°C° 0.4 mm 2 mps 731 mmHg 68%
    13:00 +31°C° 0.4 mm 2 mps 731 mmHg 68%
    14:00 +30°C° 0.6 mm 2 mps 730 mmHg 72%
    15:00 +30°C° 0.6 mm 1 mps 730 mmHg 75%
    16:00 +29°C° 0.6 mm 1 mps 729 mmHg 78%
    17:00 +28°C° 0.9 mm 1 mps 730 mmHg 83%
    18:00 +27°C° 0.9 mm 1 mps 730 mmHg 88%
    19:00 +24°C° 0.9 mm 0 mps 731 mmHg 93%
    20:00 +24°C° 1.1 mm 0 mps 731 mmHg 93%
    21:00 +23°C° 1.1 mm 0 mps 732 mmHg 93%
    22:00 +25°C° 1.1 mm 1 mps 732 mmHg 94%
    23:00 +23°C° 1.3 mm 0 mps 732 mmHg 94%

    24 May, Thursday

    Time Temperature Precipitation Wind Pressure Humidity
    00:00 +23°C° 1.3 mm 0 mps 732 mmHg 94%
    01:00 +23°C° 1.3 mm 0 mps 731 mmHg 94%
    02:00 +23°C° 1.8 mm 0 mps 731 mmHg 94%
    03:00 +23°C° 1.8 mm 0 mps 731 mmHg 95%
    04:00 +24°C° 1.8 mm 1 mps 731 mmHg 95%
    05:00 +25°C° 0.8 mm 1 mps 731 mmHg 94%
    06:00 +23°C° 0.8 mm 0 mps 732 mmHg 93%
    07:00 +23°C° 0.8 mm 0 mps 732 mmHg 91%
    08:00 +27°C° 0.3 mm 1 mps 733 mmHg 84%
    09:00 +29°C° 0.3 mm 1 mps 733 mmHg 76%
    10:00 +31°C° 0.3 mm 1 mps 733 mmHg 68%
    11:00 +31°C° 0.6 mm 1 mps 732 mmHg 69%
    12:00 +31°C° 0.6 mm 1 mps 731 mmHg 70%
    13:00 +31°C° 0.6 mm 2 mps 731 mmHg 71%
    14:00 +30°C° 1.2 mm 2 mps 730 mmHg 76%
    15:00 +29°C° 1.1 mm 2 mps 730 mmHg 80%
    16:00 +29°C° 1.2 mm 1 mps 729 mmHg 85%
    17:00 +28°C° 0.7 mm 1 mps 730 mmHg 88%
    18:00 +27°C° 0.7 mm 1 mps 730 mmHg 92%
    19:00 +24°C° 0.7 mm 0 mps 731 mmHg 95%
    20:00 +24°C° 0.4 mm 0 mps 731 mmHg 94%
    21:00 +24°C° 0.4 mm 0 mps 732 mmHg 94%
    22:00 +23°C° 0.4 mm 0 mps 732 mmHg 93%
    23:00 +25°C° 0.4 mm 1 mps 732 mmHg 92%

    25 May, Friday

    Time Temperature Precipitation Wind Pressure Humidity
    00:00 +25°C° 0.4 mm 1 mps 731 mmHg 92%
    01:00 +25°C° 0.4 mm 1 mps 731 mmHg 91%
    02:00 +25°C° 0.5 mm 1 mps 731 mmHg 91%
    03:00 +25°C° 0.5 mm 1 mps 730 mmHg 91%
    04:00 +25°C° 0.5 mm 1 mps 730 mmHg 90%
    05:00 +25°C° 0.3 mm 1 mps 731 mmHg 89%
    06:00 +24°C° 0.3 mm 0 mps 731 mmHg 88%
    07:00 +24°C° 0.3 mm 0 mps 732 mmHg 86%
    08:00 +27°C° 0.4 mm 1 mps 732 mmHg 81%
    09:00 +29°C° 0.4 mm 1 mps 732 mmHg 76%
    10:00 +30°C° 0.4 mm 1 mps 732 mmHg 71%
    11:00 +30°C° 0.8 mm 1 mps 732 mmHg 72%
    12:00 +30°C° 0.8 mm 1 mps 731 mmHg 73%
    13:00 +30°C° 0.8 mm 2 mps 730 mmHg 75%
    14:00 +30°C° 1 mm 1 mps 730 mmHg 77%
    15:00 +30°C° 1 mm 1 mps 729 mmHg 79%
    16:00 +29°C° 1 mm 1 mps 729 mmHg 81%
    17:00 +28°C° 1.3 mm 1 mps 729 mmHg 86%
    18:00 +27°C° 1.3 mm 1 mps 730 mmHg 91%
    19:00 +26°C° 1.3 mm 1 mps 730 mmHg 96%
    20:00 +26°C° 1.4 mm 1 mps 731 mmHg 96%
    21:00 +25°C° 1.4 mm 1 mps 731 mmHg 96%
    22:00 +23°C° 1.4 mm 0 mps 732 mmHg 96%
    23:00 +23°C° 1.1 mm 0 mps 731 mmHg 96%

    26 May, Saturday

    Time Temperature Precipitation Wind Pressure Humidity
    00:00 +23°C° 1.1 mm 0 mps 731 mmHg 96%
    01:00 +23°C° 1.1 mm 0 mps 730 mmHg 96%
    02:00 +23°C° 1.4 mm 0 mps 730 mmHg 96%
    03:00 +23°C° 1.4 mm 0 mps 730 mmHg 96%
    04:00 +23°C° 1.4 mm 0 mps 730 mmHg 96%
    05:00 +23°C° 1.5 mm 0 mps 731 mmHg 96%
    06:00 +23°C° 1.5 mm 0 mps 731 mmHg 96%
    07:00 +23°C° 1.5 mm 0 mps 731 mmHg 96%
    08:00 +23°C° 1.5 mm 0 mps 732 mmHg 95%
    09:00 +23°C° 1.5 mm 0 mps 732 mmHg 95%
    10:00 +23°C° 1.5 mm 0 mps 732 mmHg 95%
    11:00 +24°C° 0.8 mm 0 mps 731 mmHg 91%
    12:00 +27°C° 0.8 mm 1 mps 730 mmHg 87%
    13:00 +28°C° 0.8 mm 1 mps 730 mmHg 83%
    14:00 +28°C° 0.7 mm 1 mps 729 mmHg 83%
    15:00 +28°C° 0.7 mm 1 mps 729 mmHg 84%
    16:00 +28°C° 0.7 mm 1 mps 728 mmHg 84%
    17:00 +27°C° 0.5 mm 1 mps 729 mmHg 88%
    18:00 +26°C° 0.5 mm 1 mps 729 mmHg 91%
    19:00 +25°C° 0.5 mm 1 mps 730 mmHg 95%
    20:00 +25°C° 0.1 mm 1 mps 730 mmHg 94%
    21:00 +25°C° 0.1 mm 1 mps 731 mmHg 93%
    22:00 +23°C° 0.1 mm 0 mps 731 mmHg 92%
    23:00 +25°C° 0.4 mm 1 mps 731 mmHg 92%
    Show more